Flag for Austria Weather past 2 weeks in Fürstenfeld, Styria, Austria

Now
75 °F

Mild.


Feels Like: 78 °F
Forecast: 55 / 72 °F
Wind: 5 mph from Northeast

Location: Murska Sobota

Current Time: May 30, 2015 at 5:34:28 PM

Latest Report: May 30, 2015 at 4:00 PM


Visibility: N/A

Pressure: 29.91 "Hg

Humidity: 50%

Dew point: 55 °F

Location of FürstenfeldLocation

Historic Weather in Fürstenfeld — Graph

°F

Fürstenfeld temperature yesterday

Maximum temperature yesterday: 75 °F (at 4:00 PM)
Minimum temperature yesterday: 43 °F (at 4:00 AM)
Average temperature yesterday: 60 °F

Past Weeks' High & Low Weather Summary

 TemperatureHumidityPressure
High82 °F (May 19, 4:00 PM)99% (May 17, 5:00 AM)30.22 "Hg (May 17, 5:00 AM)
Low43 °F (May 29, 4:00 AM)40% (May 19, 4:00 PM)29.69 "Hg (May 19, 5:00 PM)
Average59 °F78%29.98 "Hg
* Reported May 15 4:00 PM — May 30 4:00 PM, Fürstenfeld, Weather by CustomWeather, © 2015

Note: Actual official high and low records may vary slightly from our data, if they occured in-between our weather recording intervals... More about our weather records

Advertising

Fürstenfeld weather history for previous 24 hours

 ConditionsComfort  
Time TempWeatherWind HumidityBarometerVisibility
4:00 PM
Sat, May 30
75 °FMild.5 mph50%29.91 "HgN/A
3:00 PM76 °FScattered clouds.5 mph47%29.91 "Hg12 mi
2:00 PM76 °FPassing clouds.5 mph44%29.92 "Hg12 mi
1:00 PM75 °FMild.5 mph48%29.92 "HgN/A
12:00 PM74 °FMild.2 mph51%29.92 "HgN/A
11:00 AM72 °FMild.2 mph55%29.93 "HgN/A
9:00 AM64 °FMild.2 mph71%29.93 "HgN/A
8:00 AM59 °FPassing clouds.2 mph81%29.93 "Hg6 mi
7:00 AM54 °FPassing clouds.1 mph89%29.93 "Hg6 mi
6:00 AM49 °FCool.1 mph94%29.92 "HgN/A
5:00 AM49 °FCool.1 mph94%29.90 "HgN/A
4:00 AM51 °FCool.1 mph87%29.88 "HgN/A
3:00 AM53 °FCool.2 mph85%29.89 "HgN/A
2:00 AM54 °FCool.2 mph83%29.90 "HgN/A
1:00 AM53 °FCool.1 mph87%29.91 "HgN/A
12:00 AM56 °FCool.1 mph81%29.91 "HgN/A
11:00 PM
Fri, May 29
60 °FCool.2 mph72%29.91 "HgN/A
10:00 PM61 °FCool.2 mph69%29.91 "HgN/A
9:00 PM65 °FMild.1 mph60%29.90 "HgN/A
8:00 PM69 °FScattered clouds.2 mph51%29.89 "Hg12 mi
7:00 PM73 °FMild.3 mph45%29.88 "HgN/A
6:00 PM74 °FMild.2 mph42%29.89 "HgN/A
5:00 PM75 °FMild.3 mph40%29.91 "HgN/A
Weather by CustomWeather, © 2015

See weather overviewHow to use our weather pages